Temp
-20 -20 -21 -21 -21 -21 -21 -21 -21 -20 -21 -19 -19 -20 -21 -20 -20 -20 -20 -20 -20 -20 -20 -21 -21 -21 -21 -22 -22 -22 -22 -22 -23 -23 -23 -23 -23 -23 -23 -23 -24 -24 -24 -24
-22 -21 -22 -22 -22 -21 -21 -21 -21 -21 -21 -20 -20 -22 -21 -20 -21 -20 -20 -20 -20 -20 -20 -21 -21 -21 -21 -22 -22 -22 -22 -23 -23 -23 -23 -23 -23 -23 -23 -24 -24 -24 -24 -24
-23 -23 -23 -24 -22 -22 -23 -22 -23 -23 -21 -21 -21 -21 -21 -21 -21 -21 -21 -20 -20 -20 -20 -20 -21 -22 -22 -22 -22 -22 -23 -23 -23 -23 -23 -23 -23 -23 -24 -24 -24 -24 -24 -24
-24 -24 -24 -22 -23 -23 -23 -23 -23 -24 -24 -23 -22 -22 -21 -21 -21 -20 -20 -21 -21 -21 -21 -21 -21 -21 -22 -22 -23 -23 -24 -24 -24 -24 -24 -24 -24 -24 -24 -24 -25 -25 -25 -24
-25 -25 -24 -24 -24 -24 -25 -25 -24 -24 -24 -24 -24 -23 -21 -21 -21 -21 -21 -21 -21 -21 -21 -21 -22 -22 -22 -23 -23 -24 -24 -24 -24 -24 -24 -24 -24 -24 -24 -25 -25 -25 -25 -25
-25 -25 -25 -24 -25 -24 -23 -24 -23 -23 -24 -24 -23 -23 -22 -22 -21 -21 -21 -21 -22 -22 -22 -22 -22 -23 -23 -24 -24 -24 -24 -24 -24 -24 -24 -24 -24 -24 -25 -25 -26 -26 -25 -26
-25 -25 -24 -24 -24 -25 -24 -24 -24 -24 -24 -24 -23 -23 -22 -22 -22 -22 -22 -22 -22 -23 -23 -23 -23 -24 -24 -24 -24 -24 -24 -25 -24 -24 -25 -24 -24 -25 -25 -26 -26 -26 -26 -26
-25 -25 -25 -25 -25 -25 -25 -25 -24 -24 -24 -23 -23 -22 -22 -22 -22 -22 -23 -23 -23 -23 -23 -24 -24 -24 -24 -24 -25 -25 -25 -25 -25 -25 -25 -25 -25 -25 -25 -26 -26 -26 -26 -26
-26 -25 -24 -25 -25 -25 -25 -24 -25 -24 -24 -24 -23 -23 -23 -23 -23 -23 -24 -24 -23 -23 -24 -24 -24 -24 -24 -25 -25 -25 -25 -25 -25 -25 -25 -25 -25 -25 -26 -26 -26 -26 -27 -27
-26 -26 -25 -25 -25 -25 -25 -25 -25 -24 -24 -24 -24 -24 -23 -23 -24 -24 -24 -24 -23 -24 -24 -24 -25 -25 -25 -25 -25 -25 -25 -25 -25 -25 -25 -25 -25 -25 -26 -26 -26 -27 -27 -27
-26 -26 -26 -25 -25 -25 -25 -25 -25 -24 -24 -24 -24 -24 -24 -24 -24 -24 -24 -24 -24 -24 -24 -24 -25 -25 -25 -25 -25 -25 -25 -25 -25 -25 -25 -25 -25 -26 -26 -26 -27 -27 -27 -27
-26 -26 -26 -26 -26 -26 -26 -25 -25 -25 -25 -25 -24 -24 -24 -24 -24 -24 -24 -24 -25 -25 -25 -25 -25 -25 -25 -25 -25 -25 -25 -25 -25 -26 -26 -25 -26 -26 -26 -27 -27 -27 -27 -27
-26 -26 -26 -26 -26 -26 -26 -25 -25 -25 -25 -25 -25 -25 -24 -25 -24 -25 -25 -25 -25 -25 -25 -25 -25 -25 -26 -26 -26 -26 -26 -26 -26 -26 -26 -26 -26 -27 -27 -27 -28 -27 -28 -28
-26 -26 -26 -26 -26 -26 -26 -26 -26 -25 -25 -25 -25 -25 -25 -25 -25 -24 -25 -25 -25 -25 -25 -26 -25 -25 -26 -26 -26 -26 -26 -26 -26 -26 -26 -26 -26 -27 -27 -28 -28 -28 -28 -28
-26 -26 -26 -26 -26 -26 -26 -26 -26 -26 -26 -26 -25 -25 -25 -25 -25 -25 -25 -25 -25 -25 -25 -26 -26 -26 -26 -26 -26 -26 -26 -26 -26 -26 -26 -26 -27 -27 -28 -28 -28 -28 -28 -28
-26 -26 -26 -26 -26 -27 -27 -27 -27 -27 -27 -27 -27 -26 -26 -26 -25 -25 -25 -25 -25 -26 -26 -26 -26 -26 -26 -27 -26 -26 -27 -27 -27 -27 -27 -27 -27 -27 -28 -28 -28 -28 -28 -29
-27 -27 -27 -27 -27 -27 -27 -27 -27 -27 -27 -27 -27 -28 -27 -27 -26 -26 -26 -26 -26 -26 -26 -26 -26 -26 -26 -27 -27 -27 -27 -27 -27 -27 -27 -27 -28 -28 -28 -28 -28 -29 -29 -29
-27 -27 -27 -27 -27 -27 -28 -28 -28 -28 -28 -28 -28 -28 -28 -27 -27 -27 -26 -26 -26 -26 -26 -26 -27 -26 -27 -27 -27 -27 -28 -28 -28 -28 -28 -28 -28 -28 -28 -28 -29 -29 -29 -29
-27 -27 -27 -28 -28 -28 -28 -29 -29 -29 -29 -29 -29 -28 -28 -28 -27 -27 -27 -27 -27 -26 -27 -27 -27 -27 -27 -27 -28 -28 -28 -28 -28 -28 -28 -28 -28 -28 -29 -29 -29 -29 -29 -29
-27 -28 -28 -28 -29 -29 -29 -30 -30 -30 -30 -30 -29 -29 -28 -28 -27 -27 -27 -27 -27 -27 -27 -27 -27 -27 -27 -28 -28 -28 -28 -28 -28 -28 -28 -28 -29 -29 -29 -29 -29 -29 -30 -30
-28 -28 -28 -29 -29 -29 -30 -30 -30 -30 -30 -29 -29 -29 -28 -28 -28 -28 -27 -27 -27 -27 -27 -27 -27 -27 -27 -28 -28 -28 -28 -28 -28 -28 -28 -29 -29 -29 -29 -30 -30 -30 -30 -30
-28 -29 -29 -29 -29 -29 -29 -30 -30 -30 -29 -29 -28 -28 -28 -28 -28 -28 -28 -27 -28 -27 -27 -27 -27 -27 -28 -28 -28 -28 -28 -28 -28 -28 -29 -29 -30 -30 -30 -30 -30 -30 -31 -31
-29 -29 -29 -29 -29 -29 -29 -29 -29 -29 -29 -28 -28 -28 -28 -28 -28 -28 -28 -28 -28 -28 -28 -27 -27 -28 -28 -28 -28 -28 -28 -28 -28 -28 -29 -30 -30 -30 -30 -30 -30 -31 -31 -31
-29 -29 -29 -28 -28 -29 -29 -29 -28 -28 -28 -28 -28 -28 -28 -28 -28 -28 -28 -28 -28 -28 -28 -28 -27 -27 -28 -28 -28 -28 -28 -28 -29 -29 -30 -30 -30 -30 -30 -31 -31 -31 -31 -32
-29 -29 -29 -28 -29 -29 -28 -28 -28 -28 -28 -28 -28 -28 -28 -28 -28 -28 -28 -28 -27 -27 -28 -28 -28 -28 -28 -28 -28 -28 -28 -29 -29 -30 -30 -30 -30 -31 -31 -31 -31 -31 -32 -32
-29 -29 -29 -29 -28 -28 -28 -28 -28 -27 -27 -27 -27 -27 -27 -27 -28 -28 -28 -28 -28 -28 -28 -28 -28 -28 -28 -29 -29 -29 -29 -30 -30 -30 -30 -31 -31 -31 -31 -31 -32 -32 -32 -32
-29 -29 -29 -29 -29 -28 -28 -28 -28 -28 -27 -27 -28 -27 -27 -28 -28 -28 -28 -28 -28 -28 -28 -28 -28 -29 -29 -29 -29 -30 -30 -30 -30 -30 -31 -31 -31 -31 -31 -32 -32 -32 -33 -33
Height
5572 5579 5577 5577 5579 5579 5576 5576 5572 5577 5574 5587 5588 5581 5579 5585 5580 5581 5582 5583 5581 5581 5581 5581 5581 5580 5580 5579 5577 5576 5573 5570 5567 5566 5565 5564 5562 5560 5557 5554 5551 5548 5545 5541
5554 5563 5560 5556 5560 5563 5565 5561 5558 5558 5558 5572 5574 5568 5566 5571 5568 5569 5570 5570 5569 5570 5570 5569 5571 5570 5570 5569 5568 5566 5564 5561 5559 5558 5557 5556 5554 5552 5549 5546 5544 5541 5538 5534
5541 5549 5544 5540 5549 5550 5548 5547 5547 5543 5549 5556 5554 5552 5552 5555 5555 5556 5557 5557 5556 5558 5560 5560 5559 5561 5561 5561 5558 5557 5555 5553 5552 5550 5549 5548 5546 5544 5541 5539 5536 5533 5530 5526
5530 5534 5524 5538 5538 5537 5535 5534 5536 5535 5535 5536 5539 5538 5538 5540 5541 5542 5544 5544 5546 5547 5549 5549 5548 5552 5552 5549 5548 5547 5545 5545 5544 5543 5541 5540 5538 5536 5533 5530 5527 5525 5522 5519
5519 5520 5521 5524 5531 5526 5523 5521 5525 5525 5522 5523 5524 5523 5526 5528 5527 5528 5530 5530 5532 5535 5536 5538 5541 5541 5540 5540 5539 5538 5538 5537 5536 5535 5533 5531 5530 5527 5524 5521 5518 5516 5514 5511
5512 5510 5509 5517 5515 5512 5508 5507 5511 5507 5510 5510 5511 5511 5515 5513 5515 5516 5518 5519 5522 5525 5528 5530 5531 5531 5531 5531 5531 5531 5530 5529 5528 5527 5525 5523 5521 5518 5515 5512 5510 5508 5506 5503
5504 5501 5500 5502 5505 5504 5500 5503 5500 5501 5501 5502 5504 5503 5499 5501 5503 5505 5508 5511 5513 5516 5520 5521 5523 5523 5523 5523 5523 5523 5522 5521 5520 5519 5517 5515 5513 5510 5507 5504 5502 5500 5498 5495
5497 5496 5496 5494 5496 5496 5494 5493 5493 5492 5491 5491 5493 5493 5488 5494 5496 5498 5500 5503 5506 5509 5512 5513 5515 5514 5515 5515 5515 5515 5514 5513 5512 5510 5508 5506 5504 5501 5498 5496 5494 5492 5490 5488
5491 5491 5487 5487 5486 5486 5486 5486 5485 5484 5483 5482 5481 5484 5486 5487 5488 5491 5494 5497 5500 5503 5504 5505 5505 5506 5507 5507 5508 5507 5506 5505 5503 5502 5500 5498 5495 5493 5490 5488 5486 5484 5483 5481
5483 5484 5482 5481 5480 5481 5480 5478 5477 5476 5476 5477 5478 5479 5480 5482 5484 5486 5489 5491 5494 5496 5498 5498 5498 5499 5501 5501 5499 5499 5498 5496 5495 5493 5491 5489 5486 5484 5481 5480 5478 5476 5475 5474
5478 5478 5477 5476 5475 5474 5473 5472 5471 5471 5471 5472 5474 5475 5476 5478 5479 5481 5483 5485 5487 5489 5490 5492 5493 5494 5494 5493 5492 5491 5489 5488 5486 5485 5482 5480 5478 5475 5473 5472 5470 5469 5467 5466
5471 5471 5471 5471 5470 5470 5469 5468 5467 5467 5468 5467 5469 5472 5472 5473 5474 5475 5477 5479 5481 5483 5485 5485 5487 5486 5486 5485 5484 5482 5481 5479 5478 5476 5474 5472 5469 5467 5465 5463 5462 5461 5459 5458
5466 5465 5465 5466 5466 5465 5464 5464 5464 5464 5464 5462 5464 5466 5466 5468 5469 5470 5471 5474 5476 5476 5477 5478 5479 5479 5478 5477 5475 5474 5472 5471 5469 5468 5466 5463 5461 5459 5457 5456 5455 5453 5452 5451
5460 5460 5460 5461 5461 5461 5460 5459 5458 5458 5458 5458 5459 5459 5460 5460 5463 5462 5464 5467 5468 5468 5469 5470 5471 5470 5469 5468 5466 5465 5464 5463 5461 5460 5458 5456 5453 5451 5450 5448 5447 5446 5445 5444
5454 5455 5455 5456 5456 5455 5455 5454 5451 5450 5449 5449 5450 5451 5453 5453 5453 5452 5454 5457 5460 5461 5462 5463 5462 5461 5460 5459 5458 5457 5456 5454 5453 5452 5450 5448 5446 5444 5442 5441 5440 5438 5438 5436
5448 5449 5450 5450 5450 5449 5448 5447 5445 5444 5442 5440 5439 5439 5441 5443 5443 5444 5446 5449 5450 5451 5451 5453 5453 5452 5451 5451 5450 5448 5447 5446 5445 5444 5442 5440 5438 5436 5435 5433 5432 5431 5430 5430
5441 5443 5443 5443 5443 5442 5440 5438 5437 5435 5433 5431 5429 5429 5429 5431 5433 5435 5436 5437 5439 5440 5441 5442 5442 5442 5443 5442 5441 5440 5439 5438 5438 5436 5434 5433 5430 5428 5427 5426 5424 5423 5422 5421
5435 5437 5436 5435 5433 5431 5428 5425 5423 5421 5420 5419 5417 5417 5418 5419 5421 5423 5424 5426 5427 5429 5431 5432 5433 5433 5433 5433 5433 5432 5432 5431 5430 5428 5426 5424 5422 5420 5419 5417 5416 5414 5414 5411
5429 5430 5428 5425 5422 5418 5412 5407 5401 5398 5399 5403 5405 5405 5406 5408 5410 5412 5414 5416 5418 5420 5422 5422 5422 5423 5424 5424 5424 5424 5423 5422 5421 5419 5417 5415 5413 5411 5410 5409 5407 5406 5405 5401
5423 5421 5418 5414 5409 5404 5398 5394 5389 5387 5387 5389 5392 5394 5395 5398 5400 5403 5405 5407 5409 5410 5411 5412 5413 5414 5415 5416 5415 5416 5415 5413 5412 5411 5408 5406 5404 5403 5402 5401 5399 5397 5395 5392
5414 5412 5408 5404 5399 5394 5389 5386 5382 5381 5381 5382 5383 5385 5387 5389 5392 5394 5396 5398 5400 5401 5402 5403 5405 5406 5407 5407 5407 5408 5407 5406 5404 5402 5399 5397 5396 5395 5394 5392 5390 5388 5385 5383
5407 5403 5400 5395 5390 5385 5381 5378 5377 5377 5376 5376 5377 5379 5381 5384 5385 5387 5389 5390 5392 5393 5394 5396 5398 5399 5399 5399 5399 5399 5399 5397 5395 5393 5391 5390 5389 5387 5386 5383 5381 5378 5376 5372
5398 5395 5391 5387 5382 5378 5375 5373 5373 5373 5372 5372 5373 5374 5376 5377 5379 5381 5382 5384 5385 5386 5387 5389 5390 5390 5390 5391 5391 5390 5390 5388 5387 5384 5383 5381 5380 5378 5376 5374 5372 5369 5365 5362
5390 5387 5384 5380 5376 5372 5369 5368 5368 5367 5367 5368 5368 5369 5370 5372 5372 5373 5375 5376 5377 5378 5379 5380 5381 5382 5382 5383 5382 5382 5381 5379 5377 5376 5374 5373 5371 5369 5367 5365 5362 5359 5355 5351
5382 5379 5377 5374 5371 5367 5364 5363 5363 5362 5363 5364 5364 5365 5365 5365 5366 5367 5367 5368 5369 5370 5370 5371 5372 5373 5373 5373 5373 5372 5371 5370 5368 5367 5365 5364 5362 5360 5358 5355 5352 5348 5344 5340
5373 5372 5371 5368 5365 5363 5360 5358 5357 5357 5357 5357 5358 5358 5358 5358 5358 5359 5360 5361 5361 5362 5362 5363 5364 5364 5364 5363 5363 5362 5362 5361 5360 5358 5357 5355 5353 5350 5348 5344 5341 5337 5333 5328
5365 5365 5364 5362 5360 5357 5355 5353 5351 5350 5350 5350 5350 5350 5350 5351 5351 5351 5352 5352 5353 5353 5354 5354 5354 5355 5354 5354 5354 5354 5353 5352 5351 5349 5348 5345 5343 5340 5337 5333 5330 5325 5321 5317
Wind_Speed
59 59 59 57 58 48 52 51 50 57 57 54 50 50 46 43 46 43 42 43 41 37 38 34 33 34 35 36 38 41 40 36 33 33 31 30 31 32 34 34 34 33 34 31
63 64 62 63 62 65 71 67 66 66 67 59 50 56 55 52 51 46 44 41 42 41 37 37 35 36 36 39 41 40 37 34 32 30 30 30 31 33 33 34 34 33 32 31
49 53 55 57 58 55 53 52 52 56 56 47 47 45 50 46 42 42 43 46 42 41 40 43 38 35 41 41 36 34 35 33 30 30 30 31 32 33 34 36 34 33 32 30
43 44 51 49 46 47 50 50 50 46 45 50 48 45 34 39 51 50 53 52 47 44 43 43 45 41 39 34 32 32 30 29 30 30 30 31 33 34 36 38 35 34 33 30
38 40 41 37 31 33 35 40 40 39 39 33 35 39 43 40 39 47 43 44 45 37 40 39 37 36 32 31 30 30 28 29 31 31 32 32 33 35 38 37 35 34 33 29
37 39 41 30 24 34 41 34 28 32 34 34 34 39 37 36 36 35 39 40 34 33 29 30 31 31 30 29 28 26 28 30 31 32 31 32 34 36 35 34 33 33 32 28
28 30 31 28 26 28 39 26 31 32 32 28 27 35 35 32 26 30 33 34 29 24 27 30 29 29 29 27 26 28 28 30 30 31 31 33 34 35 35 34 32 31 30 26
26 26 31 32 29 32 31 29 30 31 32 31 28 38 28 35 34 30 26 20 19 22 23 24 27 26 26 28 25 26 28 29 30 31 32 33 34 35 34 31 32 32 26 26
26 21 17 19 23 23 27 30 32 32 25 31 34 35 31 28 22 19 17 18 20 22 22 23 23 24 26 24 24 27 28 29 30 32 32 32 33 34 33 32 32 29 26 27
24 19 21 24 22 22 23 26 27 28 25 30 28 24 23 21 20 20 20 21 22 22 22 22 20 21 22 22 25 25 28 29 29 31 31 32 33 35 33 32 31 28 27 28
19 16 20 23 24 25 24 19 16 22 28 28 23 23 23 22 22 21 22 21 20 21 19 24 25 25 27 28 27 28 28 29 30 30 32 33 34 34 32 31 29 27 28 28
24 24 24 23 24 24 24 17 16 16 20 19 19 19 19 20 23 24 22 22 21 22 27 28 27 28 29 28 29 29 29 30 30 30 32 34 34 32 31 28 26 28 29 27
22 22 16 15 13 13 14 17 16 16 19 18 16 21 23 18 20 20 20 23 28 30 31 32 28 30 31 29 30 31 31 30 29 30 31 32 32 30 29 27 28 29 28 27
16 12 9 8 8 14 18 23 24 27 27 25 24 21 26 27 30 33 29 30 31 30 34 31 29 32 31 31 32 32 31 30 29 30 30 31 30 29 29 28 28 28 28 28
17 15 14 13 13 15 18 22 25 24 27 31 31 30 28 30 29 28 35 33 36 35 37 38 40 40 34 32 32 32 30 29 29 29 29 30 28 28 28 29 29 28 28 29
18 18 16 18 20 20 21 23 25 29 31 28 33 36 34 33 39 40 38 38 41 40 41 42 43 40 33 32 33 32 30 29 29 29 29 30 28 29 30 30 29 28 29 29
18 20 22 23 25 27 30 31 33 33 33 32 33 36 36 34 32 33 36 39 41 43 43 39 38 35 32 30 31 30 28 28 29 29 30 30 30 31 31 29 28 29 30 31
21 21 25 30 35 39 41 44 46 45 41 37 33 34 37 36 33 33 34 36 37 38 37 33 33 33 31 30 29 27 24 32 33 32 31 31 32 32 29 28 29 29 30 33
19 24 30 37 41 45 49 53 51 47 47 45 39 33 37 39 38 35 35 34 33 33 33 33 33 35 32 29 29 27 31 32 31 31 30 32 33 29 29 29 29 30 32 34
25 32 38 41 45 43 37 32 29 26 26 28 27 28 28 36 37 34 35 34 35 35 34 35 35 32 28 27 28 24 24 28 28 28 33 35 29 27 28 29 30 32 33 34
29 35 37 39 33 31 28 26 21 21 18 19 22 23 25 28 31 32 32 32 32 31 32 30 27 24 25 27 26 23 24 27 30 34 35 28 27 28 29 31 33 33 34 36
33 34 35 29 28 27 25 21 17 17 22 16 17 21 22 25 25 25 25 26 24 26 26 24 22 22 23 26 26 28 29 31 32 37 30 27 28 29 31 32 33 34 35 37
30 32 27 27 29 25 22 17 17 19 23 19 18 21 23 21 21 21 22 20 24 24 25 23 24 27 23 22 30 34 36 35 38 33 28 29 30 31 32 33 33 35 37 39
28 28 23 23 24 22 18 19 20 19 18 18 16 16 17 17 18 20 22 22 23 25 26 26 24 34 28 34 36 37 37 40 34 28 28 30 31 31 33 33 34 37 39 40
29 24 21 22 23 23 20 17 19 22 24 22 21 21 21 22 22 20 21 24 26 26 25 29 29 26 32 36 38 39 38 31 28 28 29 30 31 33 34 35 38 39 40 43
27 21 19 23 24 23 22 19 19 21 23 24 25 26 23 20 21 23 24 23 25 28 26 28 30 32 32 32 31 29 27 27 28 29 31 31 33 33 34 38 39 40 43 42
23 19 20 22 23 22 22 20 19 19 21 21 20 20 20 21 23 24 25 27 30 30 31 33 31 31 27 24 24 25 27 29 30 31 32 33 33 35 38 38 40 43 42 38
Wind_Direction
248 250 252 255 254 250 257 257 258 267 267 268 265 268 268 261 268 274 272 269 264 264 264 267 270 270 273 279 284 288 289 290 288 282 281 280 285 290 295 295 294 296 300 303
257 258 263 264 262 257 252 263 271 271 272 272 268 267 266 262 267 266 266 267 259 264 267 262 264 267 274 278 282 285 289 286 282 279 278 279 285 290 295 297 293 294 298 302
268 267 268 264 263 266 268 270 273 272 272 266 269 271 262 259 255 259 265 263 263 261 264 239 262 264 271 278 282 285 283 281 278 277 277 280 285 290 293 295 292 291 296 301
268 265 262 271 269 272 273 273 270 272 274 273 269 269 271 270 259 262 259 261 266 261 264 246 242 258 271 275 278 277 275 277 278 278 279 281 285 289 293 292 289 289 293 297
264 265 271 268 278 273 269 262 269 270 269 268 266 259 267 268 262 257 264 261 255 244 233 243 257 262 271 276 276 275 273 279 280 279 281 282 286 291 293 293 287 288 290 290
267 272 274 282 261 263 264 265 258 249 260 262 256 250 253 254 262 247 252 244 232 233 245 253 260 267 271 273 271 274 278 282 280 280 281 285 290 294 293 294 289 285 286 286
270 272 272 265 261 259 268 265 260 271 266 264 256 256 243 253 247 234 222 231 237 239 246 256 263 265 268 266 269 276 281 279 279 282 285 289 293 295 292 289 285 284 284 284
265 271 264 269 265 264 273 276 278 276 270 256 246 244 232 242 246 242 235 234 242 248 253 256 261 267 266 265 273 277 275 278 281 285 288 290 294 296 292 283 281 285 284 284
257 259 263 258 262 271 275 272 268 273 270 265 243 233 238 234 235 239 242 243 244 249 254 258 262 265 266 265 269 276 278 282 285 286 288 290 293 294 289 282 281 284 283 283
252 261 266 265 277 279 280 276 267 264 265 264 254 242 240 239 237 241 241 242 249 254 258 262 259 264 266 266 271 275 281 285 286 287 287 291 292 291 286 280 280 282 283 282
254 270 272 273 275 284 284 290 280 273 270 247 237 239 243 243 240 239 244 247 251 255 263 261 262 267 271 273 275 276 283 287 287 287 287 292 292 289 282 279 280 282 282 280
264 269 268 270 274 276 285 293 281 272 258 255 257 247 244 236 241 243 244 246 252 251 257 263 275 275 274 276 275 278 282 285 286 286 289 293 291 286 281 277 281 284 282 277
259 261 259 259 266 281 296 305 307 300 295 286 259 234 229 240 233 238 241 255 249 263 267 269 270 276 280 279 276 278 280 283 283 285 291 293 291 285 279 277 281 282 278 274
247 237 236 250 278 297 304 301 299 294 286 278 270 260 230 227 241 226 241 248 261 261 260 262 272 277 281 279 275 277 278 280 282 285 291 293 289 285 279 278 281 278 275 277
246 233 245 263 276 292 301 305 306 314 309 286 269 263 250 235 237 236 233 241 247 250 258 270 269 276 280 274 275 275 276 280 283 286 290 291 289 283 280 282 280 275 277 280
243 245 255 270 285 290 296 303 307 310 303 297 281 267 256 251 246 249 250 251 253 252 256 260 268 272 270 272 272 273 276 279 283 286 289 286 288 287 285 282 278 276 279 278
241 253 264 274 290 292 290 286 289 295 289 286 278 267 258 247 249 248 245 247 250 252 257 259 262 265 269 267 269 273 277 279 282 287 287 285 287 286 285 280 277 279 280 282
249 268 286 286 283 283 285 284 280 275 272 269 277 267 257 244 240 244 245 246 249 252 253 255 260 265 267 266 269 273 277 276 283 284 284 286 288 285 281 277 279 280 284 287
267 284 287 286 288 291 291 290 286 279 270 263 266 261 255 243 240 241 245 248 248 251 256 259 259 260 262 262 267 267 271 281 282 285 284 290 288 280 278 280 282 285 289 291
281 283 287 292 297 298 297 296 293 277 267 254 255 252 250 244 241 242 245 247 250 255 258 256 256 259 256 259 265 270 279 283 282 284 290 288 281 279 280 283 286 289 292 294
285 291 292 299 301 299 297 297 288 281 253 268 252 247 248 247 247 246 247 250 253 253 253 255 257 254 259 262 256 264 286 285 281 289 290 282 280 281 284 285 289 292 294 295
286 287 297 301 308 304 302 297 286 264 271 277 265 249 244 243 242 243 245 248 250 251 252 254 254 260 264 263 263 266 279 285 286 289 283 280 281 283 285 289 291 293 295 298
286 297 298 307 310 304 298 285 277 280 274 269 271 257 255 245 243 246 247 247 248 250 253 246 257 250 257 267 272 269 281 281 284 281 279 281 283 285 288 289 291 295 298 299
288 291 298 307 317 308 293 275 273 279 275 271 253 254 254 251 250 249 247 250 251 262 250 250 249 268 262 259 260 269 277 278 277 277 280 283 286 287 288 289 294 299 299 299
285 283 295 299 306 320 306 281 273 261 262 262 255 255 264 257 249 256 256 258 262 252 254 248 249 250 251 255 263 268 271 271 274 278 282 285 286 288 289 290 296 297 298 301
276 272 290 302 300 300 307 294 272 262 259 260 259 261 260 249 249 257 258 253 241 254 253 254 260 266 261 266 262 261 267 273 277 280 282 284 288 289 290 295 296 297 300 301
261 269 284 300 301 295 297 298 284 273 264 261 259 258 255 256 259 257 256 251 245 248 253 259 258 256 260 261 264 268 272 276 279 280 280 287 289 291 295 295 298 300 299 297